Вернуться в каталог

FENGYUN 1C DEB

АктивенPO
NORAD 38824·DEBRIS·🇨🇳 China

Запущен May 10, 1999 с Taiyuan Satellite Launch Center

Loading…

Ближайшие Пролёты (ближайшие 24 часа)

TLE

СвежийSource: Space-Track

Эпоха: Sep 14, 2026, 09:16 UTC

1 38824U 99025EVQ 26257.38642094  .00003339  00000-0  16190-2 0  9995
2 38824  99.2983  47.7488 0095265 149.1115 211.5710 14.16749298730372

Отслеживайте FENGYUN 1C DEB в реальном времени с AllMySat

Download on the App Store